When you browse on this site, cookies collect data to enhance your experience and personalize the content and advertising you see.
Visit our Privacy Policy to learn more. By continuing to use the site, you agree to this use of cookies and data.
  • In Austria
  • List of Countries
  • For 7 days
  • Water Temperature
  • Weather Map
  • News
  • Weather Widgets
  • user-avatar
    Login

    Hourly Weather Cuautepec de Hinojosa

    Today, 14 December, Saturday

    Time Temperature Precipitation Wind Pressure Humidity
    00:00 +10°C° 0 mm 1 mps 580 mmHg 66%
    01:00 +10°C° 0 mm 1 mps 579 mmHg 64%
    02:00 +10°C° 0 mm 1 mps 579 mmHg 63%
    03:00 +10°C° 0 mm 1 mps 579 mmHg 62%
    04:00 +10°C° 0 mm 1 mps 579 mmHg 62%
    05:00 +9°C° 0 mm 1 mps 579 mmHg 61%
    06:00 +11°C° 0 mm 1 mps 580 mmHg 54%
    07:00 +13°C° 0 mm 1 mps 581 mmHg 46%
    08:00 +14°C° 0 mm 0 mps 583 mmHg 39%
    09:00 +18°C° 0 mm 1 mps 583 mmHg 33%
    10:00 +19°C° 0 mm 1 mps 583 mmHg 27%
    11:00 +21°C° 0 mm 1 mps 584 mmHg 22%
    12:00 +21°C° 0 mm 1 mps 583 mmHg 23%
    13:00 +21°C° 0 mm 1 mps 583 mmHg 25%
    14:00 +21°C° 0 mm 2 mps 582 mmHg 26%
    15:00 +19°C° 0 mm 1 mps 581 mmHg 37%
    16:00 +16°C° 0 mm 1 mps 580 mmHg 47%
    17:00 +14°C° 0 mm 1 mps 579 mmHg 58%
    18:00 +13°C° 0 mm 1 mps 579 mmHg 57%
    19:00 +13°C° 0 mm 1 mps 579 mmHg 56%
    20:00 +12°C° 0 mm 1 mps 580 mmHg 55%
    21:00 +12°C° 0 mm 1 mps 579 mmHg 54%
    22:00 +12°C° 0 mm 2 mps 579 mmHg 53%
    23:00 +12°C° 0 mm 2 mps 579 mmHg 52%

    Tomorrow, 15 December, Sunday

    Time Temperature Precipitation Wind Pressure Humidity
    00:00 +12°C° 0 mm 2 mps 579 mmHg 52%
    01:00 +10°C° 0 mm 2 mps 578 mmHg 53%
    02:00 +10°C° 0 mm 2 mps 578 mmHg 54%
    03:00 +10°C° 0 mm 2 mps 578 mmHg 54%
    04:00 +10°C° 0 mm 2 mps 578 mmHg 55%
    05:00 +9°C° 0 mm 2 mps 578 mmHg 56%
    06:00 +12°C° 0 mm 2 mps 579 mmHg 52%
    07:00 +14°C° 0 mm 2 mps 581 mmHg 48%
    08:00 +16°C° 0 mm 1 mps 582 mmHg 44%
    09:00 +19°C° 0 mm 1 mps 583 mmHg 38%
    10:00 +21°C° 0 mm 1 mps 584 mmHg 31%
    11:00 +23°C° 0 mm 1 mps 584 mmHg 24%
    12:00 +23°C° 0 mm 1 mps 584 mmHg 25%
    13:00 +23°C° 0 mm 1 mps 583 mmHg 25%
    14:00 +23°C° 0 mm 1 mps 582 mmHg 26%
    15:00 +21°C° 0 mm 1 mps 581 mmHg 36%
    16:00 +18°C° 0 mm 1 mps 580 mmHg 46%
    17:00 +15°C° 0 mm 1 mps 579 mmHg 56%
    18:00 +14°C° 0 mm 1 mps 579 mmHg 57%
    19:00 +14°C° 0 mm 1 mps 579 mmHg 58%
    20:00 +13°C° 0 mm 2 mps 579 mmHg 59%
    21:00 +13°C° 0 mm 2 mps 579 mmHg 60%
    22:00 +12°C° 0 mm 2 mps 579 mmHg 62%
    23:00 +12°C° 0 mm 2 mps 579 mmHg 63%

    Day after tomorrow, 16 December, Monday

    Time Temperature Precipitation Wind Pressure Humidity
    00:00 +12°C° 0 mm 2 mps 579 mmHg 62%
    01:00 +12°C° 0 mm 2 mps 578 mmHg 61%
    02:00 +10°C° 0 mm 3 mps 578 mmHg 60%
    03:00 +10°C° 0 mm 2 mps 578 mmHg 62%
    04:00 +10°C° 0 mm 2 mps 578 mmHg 63%
    05:00 +10°C° 0 mm 2 mps 578 mmHg 65%
    06:00 +12°C° 0 mm 2 mps 579 mmHg 60%
    07:00 +14°C° 0 mm 2 mps 581 mmHg 56%
    08:00 +16°C° 0 mm 2 mps 582 mmHg 52%
    09:00 +19°C° 0 mm 1 mps 582 mmHg 46%
    10:00 +21°C° 0 mm 1 mps 583 mmHg 39%
    11:00 +23°C° 0 mm 1 mps 584 mmHg 33%
    12:00 +23°C° 0 mm 1 mps 583 mmHg 33%
    13:00 +23°C° 0 mm 2 mps 582 mmHg 33%
    14:00 +21°C° 0 mm 2 mps 582 mmHg 33%
    15:00 +19°C° 0 mm 2 mps 581 mmHg 42%
    16:00 +18°C° 0 mm 1 mps 580 mmHg 51%
    17:00 +15°C° 0 mm 1 mps 579 mmHg 61%
    18:00 +14°C° 0 mm 1 mps 579 mmHg 60%
    19:00 +14°C° 0 mm 1 mps 580 mmHg 60%
    20:00 +13°C° 0 mm 1 mps 580 mmHg 60%
    21:00 +13°C° 0 mm 1 mps 580 mmHg 59%
    22:00 +12°C° 0 mm 1 mps 580 mmHg 59%
    23:00 +12°C° 0 mm 1 mps 580 mmHg 58%

    17 December, Tuesday

    Time Temperature Precipitation Wind Pressure Humidity
    00:00 +11°C° 0 mm 1 mps 580 mmHg 59%
    01:00 +11°C° 0 mm 1 mps 579 mmHg 60%
    02:00 +10°C° 0 mm 1 mps 579 mmHg 61%
    03:00 +10°C° 0 mm 1 mps 579 mmHg 66%
    04:00 +9°C° 0 mm 1 mps 579 mmHg 72%
    05:00 +9°C° 0 mm 1 mps 579 mmHg 77%
    06:00 +10°C° 0 mm 1 mps 580 mmHg 79%
    07:00 +10°C° 0 mm 2 mps 581 mmHg 81%
    08:00 +10°C° 0 mm 2 mps 582 mmHg 84%
    09:00 +13°C° 0.1 mm 2 mps 582 mmHg 79%
    10:00 +14°C° 0.1 mm 2 mps 583 mmHg 75%
    11:00 +14°C° 0.1 mm 3 mps 583 mmHg 70%
    12:00 +13°C° 0 mm 3 mps 582 mmHg 72%
    13:00 +13°C° 0 mm 3 mps 582 mmHg 75%
    14:00 +13°C° 0 mm 3 mps 581 mmHg 77%
    15:00 +11°C° 0 mm 3 mps 581 mmHg 82%
    16:00 +10°C° 0 mm 3 mps 581 mmHg 87%
    17:00 +9°C° 0 mm 3 mps 580 mmHg 91%
    18:00 +9°C° 0 mm 2 mps 581 mmHg 92%
    19:00 +8°C° 0 mm 2 mps 581 mmHg 92%
    20:00 +8°C° 0 mm 2 mps 582 mmHg 92%
    21:00 +7°C° 0 mm 2 mps 582 mmHg 92%
    22:00 +7°C° 0 mm 2 mps 582 mmHg 92%
    23:00 +7°C° 0 mm 2 mps 582 mmHg 92%

    18 December, Wednesday

    Time Temperature Precipitation Wind Pressure Humidity
    00:00 +7°C° 0 mm 2 mps 582 mmHg 92%
    01:00 +6°C° 0 mm 2 mps 581 mmHg 92%
    02:00 +6°C° 0 mm 2 mps 581 mmHg 92%
    03:00 +6°C° 0 mm 2 mps 581 mmHg 92%
    04:00 +5°C° 0 mm 2 mps 581 mmHg 92%
    05:00 +6°C° 0 mm 1 mps 582 mmHg 92%
    06:00 +6°C° 0 mm 1 mps 582 mmHg 90%
    07:00 +6°C° 0 mm 2 mps 583 mmHg 88%
    08:00 +6°C° 0 mm 2 mps 583 mmHg 86%
    09:00 +7°C° 0 mm 2 mps 583 mmHg 82%
    10:00 +8°C° 0 mm 2 mps 584 mmHg 77%
    11:00 +9°C° 0 mm 2 mps 584 mmHg 73%
    12:00 +9°C° 0 mm 3 mps 583 mmHg 73%
    13:00 +9°C° 0 mm 3 mps 582 mmHg 73%
    14:00 +9°C° 0 mm 3 mps 582 mmHg 73%
    15:00 +8°C° 0 mm 3 mps 581 mmHg 77%
    16:00 +7°C° 0 mm 2 mps 581 mmHg 82%
    17:00 +6°C° 0 mm 2 mps 581 mmHg 86%
    18:00 +5°C° 0 mm 2 mps 581 mmHg 87%
    19:00 +5°C° 0 mm 2 mps 581 mmHg 88%
    20:00 +5°C° 0 mm 2 mps 582 mmHg 89%
    21:00 +5°C° 0 mm 2 mps 582 mmHg 88%
    22:00 +5°C° 0 mm 2 mps 582 mmHg 88%
    23:00 +6°C° 0 mm 2 mps 582 mmHg 88%

    19 December, Thursday

    Time Temperature Precipitation Wind Pressure Humidity
    00:00 +7°C° 0 mm 1 mps 581 mmHg 89%
    01:00 +7°C° 0 mm 1 mps 581 mmHg 89%
    02:00 +7°C° 0 mm 1 mps 581 mmHg 90%
    03:00 +6°C° 0 mm 1 mps 580 mmHg 91%
    04:00 +6°C° 0 mm 1 mps 580 mmHg 92%
    05:00 +6°C° 0 mm 1 mps 580 mmHg 93%
    06:00 +7°C° 0 mm 1 mps 581 mmHg 85%
    07:00 +9°C° 0 mm 1 mps 582 mmHg 77%
    08:00 +11°C° 0 mm 1 mps 583 mmHg 70%
    09:00 +13°C° 0 mm 1 mps 584 mmHg 64%
    10:00 +15°C° 0 mm 1 mps 585 mmHg 58%
    11:00 +18°C° 0 mm 1 mps 585 mmHg 52%
    12:00 +17°C° 0 mm 2 mps 584 mmHg 53%
    13:00 +18°C° 0 mm 2 mps 584 mmHg 53%
    14:00 +18°C° 0 mm 2 mps 583 mmHg 54%
    15:00 +16°C° 0 mm 2 mps 583 mmHg 63%
    16:00 +14°C° 0 mm 1 mps 582 mmHg 73%
    17:00 +12°C° 0 mm 1 mps 581 mmHg 82%
    18:00 +12°C° 0 mm 1 mps 581 mmHg 82%
    19:00 +12°C° 0 mm 1 mps 582 mmHg 83%
    20:00 +11°C° 0 mm 1 mps 582 mmHg 83%
    21:00 +10°C° 0 mm 0 mps 582 mmHg 83%
    22:00 +10°C° 0 mm 0 mps 582 mmHg 82%
    23:00 +9°C° 0 mm 0 mps 581 mmHg 82%
    Show more